owner,sensor,date,latitude,longitude,vertical_datum,sea_water_practical_salinity,qcFlag 
DISL,ioos:station:DISL:CATA:1,2009-06-01T00:00:00Z,30.3085,-88.1395,2.551,6.71,1111122 
DISL,ioos:station:DISL:CATA:1,2009-06-01T00:30:00Z,30.3085,-88.1395,2.554,6.7,1111122 
DISL,ioos:station:DISL:CATA:1,2009-06-01T01:00:00Z,30.3085,-88.1395,2.563,6.76,1111122 
DISL,ioos:station:DISL:CATA:1,2009-06-01T01:30:00Z,30.3085,-88.1395,2.554,6.69,1111122 
DISL,ioos:station:DISL:CATA:1,2009-06-01T02:00:00Z,30.3085,-88.1395,2.553,6.85,1111122 
DISL,ioos:station:DISL:CATA:1,2009-06-01T02:30:00Z,30.3085,-88.1395,2.547,6.81,1111122 
DISL,ioos:station:DISL:CATA:1,2009-06-01T03:00:00Z,30.3085,-88.1395,2.543,7.31,1111122 
DISL,ioos:station:DISL:CATA:1,2009-06-01T03:30:00Z,30.3085,-88.1395,2.528,7.43,1111122 
DISL,ioos:station:DISL:CATA:1,2009-06-01T04:00:00Z,30.3085,-88.1395,2.519,7.42,1111122 
DISL,ioos:station:DISL:CATA:1,2009-06-01T04:30:00Z,30.3085,-88.1395,2.524,7.25,1111122 
DISL,ioos:station:DISL:CATA:1,2009-06-01T05:00:00Z,30.3085,-88.1395,2.529,7.6,1111122 
DISL,ioos:station:DISL:CATA:1,2009-06-01T05:30:00Z,30.3085,-88.1395,2.526,8.03,1111122 
DISL,ioos:station:DISL:CATA:1,2009-06-01T06:00:00Z,30.3085,-88.1395,2.537,8.04,1111122 
DISL,ioos:station:DISL:CATA:1,2009-06-01T06:30:00Z,30.3085,-88.1395,2.548,7.52,1111122 
DISL,ioos:station:DISL:CATA:1,2009-06-01T07:00:00Z,30.3085,-88.1395,2.548,6.57,1111122 
DISL,ioos:station:DISL:CATA:1,2009-06-01T07:30:00Z,30.3085,-88.1395,2.543,6.93,1111122 
DISL,ioos:station:DISL:CATA:1,2009-06-01T08:00:00Z,30.3085,-88.1395,2.541,7.17,1111122 
DISL,ioos:station:DISL:CATA:1,2009-06-01T08:30:00Z,30.3085,-88.1395,2.549,7.18,1111122 
DISL,ioos:station:DISL:CATA:1,2009-06-01T09:00:00Z,30.3085,-88.1395,2.553,7.1,1111122 
DISL,ioos:station:DISL:CATA:1,2009-06-01T09:30:00Z,30.3085,-88.1395,2.557,7.18,1111122 
DISL,ioos:station:DISL:CATA:1,2009-06-01T10:00:00Z,30.3085,-88.1395,2.557,7.19,1111122 
DISL,ioos:station:DISL:CATA:1,2009-06-01T10:30:00Z,30.3085,-88.1395,2.566,7.16,1111122 
DISL,ioos:station:DISL:CATA:1,2009-06-01T11:00:00Z,30.3085,-88.1395,2.576,7.75,1111122 
DISL,ioos:station:DISL:CATA:1,2009-06-01T11:30:00Z,30.3085,-88.1395,2.583,8.29,1111122 
DISL,ioos:station:DISL:CATA:1,2009-06-01T12:00:00Z,30.3085,-88.1395,2.595,8.69,1111122 
DISL,ioos:station:DISL:CATA:1,2009-06-01T12:30:00Z,30.3085,-88.1395,2.615,9.02,1111122 
DISL,ioos:station:DISL:CATA:1,2009-06-01T13:00:00Z,30.3085,-88.1395,2.606,9.41,1111122 
DISL,ioos:station:DISL:CATA:1,2009-06-01T13:30:00Z,30.3085,-88.1395,2.613,10.09,1111122 
DISL,ioos:station:DISL:CATA:1,2009-06-01T14:00:00Z,30.3085,-88.1395,2.611,10.83,1111122 
DISL,ioos:station:DISL:CATA:1,2009-06-01T14:30:00Z,30.3085,-88.1395,2.61,11.57,1111122 
DISL,ioos:station:DISL:CATA:1,2009-06-01T15:00:00Z,30.3085,-88.1395,2.589,12.24,1111122 
DISL,ioos:station:DISL:CATA:1,2009-06-01T15:30:00Z,30.3085,-88.1395,2.572,12.42,1111122 
DISL,ioos:station:DISL:CATA:1,2009-06-01T16:00:00Z,30.3085,-88.1395,2.568,12.7,1111122 
DISL,ioos:station:DISL:CATA:1,2009-06-01T16:30:00Z,30.3085,-88.1395,2.546,10.93,1111122 
DISL,ioos:station:DISL:CATA:1,2009-06-01T17:00:00Z,30.3085,-88.1395,2.532,6.64,1111122 
DISL,ioos:station:DISL:CATA:1,2009-06-01T17:30:00Z,30.3085,-88.1395,2.514,4.07,1111122 
DISL,ioos:station:DISL:CATA:1,2009-06-01T18:00:00Z,30.3085,-88.1395,2.517,3.73,1111122 
DISL,ioos:station:DISL:CATA:1,2009-06-01T18:30:00Z,30.3085,-88.1395,2.492,3.48,1111122 
DISL,ioos:station:DISL:CATA:1,2009-06-01T19:00:00Z,30.3085,-88.1395,2.478,3.41,1111122 
DISL,ioos:station:DISL:CATA:1,2009-06-01T19:30:00Z,30.3085,-88.1395,2.478,3.3,1111122 
DISL,ioos:station:DISL:CATA:1,2009-06-01T20:00:00Z,30.3085,-88.1395,2.477,3.15,1111122 
DISL,ioos:station:DISL:CATA:1,2009-06-01T20:30:00Z,30.3085,-88.1395,2.468,3.09,1111122 
DISL,ioos:station:DISL:CATA:1,2009-06-01T21:00:00Z,30.3085,-88.1395,2.468,3.06,1111122 
DISL,ioos:station:DISL:CATA:1,2009-06-01T21:30:00Z,30.3085,-88.1395,2.464,3.08,1111122 
DISL,ioos:station:DISL:CATA:1,2009-06-01T22:00:00Z,30.3085,-88.1395,2.468,3.11,1111122 
DISL,ioos:station:DISL:CATA:1,2009-06-01T22:30:00Z,30.3085,-88.1395,2.441,3.05,1111122 
DISL,ioos:station:DISL:CATA:1,2009-06-01T23:00:00Z,30.3085,-88.1395,2.454,3.1,1111122 
DISL,ioos:station:DISL:CATA:1,2009-06-01T23:30:00Z,30.3085,-88.1395,2.453,3.18,1111122 
DISL,ioos:station:DISL:CATA:1,2009-06-02T00:00:00Z,30.3085,-88.1395,2.453,3.24,1111122 
DISL,ioos:station:DISL:CATA:1,2009-06-02T00:30:00Z,30.3085,-88.1395,2.469,3.31,1111122 
DISL,ioos:station:DISL:CATA:1,2009-06-02T01:00:00Z,30.3085,-88.1395,2.494,3.34,1111122 
DISL,ioos:station:DISL:CATA:1,2009-06-02T01:30:00Z,30.3085,-88.1395,2.503,3.44,1111122 
DISL,ioos:station:DISL:CATA:1,2009-06-02T02:00:00Z,30.3085,-88.1395,2.51,3.73,1111122 
DISL,ioos:station:DISL:CATA:1,2009-06-02T02:30:00Z,30.3085,-88.1395,2.513,3.59,1111122 
DISL,ioos:station:DISL:CATA:1,2009-06-02T03:00:00Z,30.3085,-88.1395,2.508,3.91,1111122 
DISL,ioos:station:DISL:CATA:1,2009-06-02T03:30:00Z,30.3085,-88.1395,2.505,4.39,1111122 
DISL,ioos:station:DISL:CATA:1,2009-06-02T04:00:00Z,30.3085,-88.1395,2.513,4.63,1111122 
DISL,ioos:station:DISL:CATA:1,2009-06-02T04:30:00Z,30.3085,-88.1395,2.53,4.99,1111122 
DISL,ioos:station:DISL:CATA:1,2009-06-02T05:00:00Z,30.3085,-88.1395,2.545,5.13,1111122 
DISL,ioos:station:DISL:CATA:1,2009-06-02T05:30:00Z,30.3085,-88.1395,2.559,5.48,1111122 
DISL,ioos:station:DISL:CATA:1,2009-06-02T06:00:00Z,30.3085,-88.1395,2.561,5.6,1111122 
DISL,ioos:station:DISL:CATA:1,2009-06-02T06:30:00Z,30.3085,-88.1395,2.583,5.75,1111122 
DISL,ioos:station:DISL:CATA:1,2009-06-02T07:00:00Z,30.3085,-88.1395,2.605,5.99,1111122 
DISL,ioos:station:DISL:CATA:1,2009-06-02T07:30:00Z,30.3085,-88.1395,2.621,6.43,1111122 
DISL,ioos:station:DISL:CATA:1,2009-06-02T08:00:00Z,30.3085,-88.1395,2.635,6.47,1111122 
DISL,ioos:station:DISL:CATA:1,2009-06-02T08:30:00Z,30.3085,-88.1395,2.656,6.88,1111122 
DISL,ioos:station:DISL:CATA:1,2009-06-02T09:00:00Z,30.3085,-88.1395,2.67,7.27,1111122 
DISL,ioos:station:DISL:CATA:1,2009-06-02T09:30:00Z,30.3085,-88.1395,2.674,7.88,1111122 
DISL,ioos:station:DISL:CATA:1,2009-06-02T10:00:00Z,30.3085,-88.1395,2.682,9.28,1111122 
DISL,ioos:station:DISL:CATA:1,2009-06-02T10:30:00Z,30.3085,-88.1395,2.709,9.27,1111122 
DISL,ioos:station:DISL:CATA:1,2009-06-02T11:00:00Z,30.3085,-88.1395,2.705,10.02,1111122 
DISL,ioos:station:DISL:CATA:1,2009-06-02T11:30:00Z,30.3085,-88.1395,2.713,10.51,1111122 
DISL,ioos:station:DISL:CATA:1,2009-06-02T12:00:00Z,30.3085,-88.1395,2.72,10.9,1111122 
DISL,ioos:station:DISL:CATA:1,2009-06-02T12:30:00Z,30.3085,-88.1395,2.727,10.97,1111122 
DISL,ioos:station:DISL:CATA:1,2009-06-02T13:00:00Z,30.3085,-88.1395,2.719,11.04,1111122 
DISL,ioos:station:DISL:CATA:1,2009-06-02T13:30:00Z,30.3085,-88.1395,2.703,11.13,1111122 
DISL,ioos:station:DISL:CATA:1,2009-06-02T14:00:00Z,30.3085,-88.1395,2.689,11.22,1111122 
DISL,ioos:station:DISL:CATA:1,2009-06-02T14:30:00Z,30.3085,-88.1395,2.684,9.33,1111122 
DISL,ioos:station:DISL:CATA:1,2009-06-02T15:00:00Z,30.3085,-88.1395,2.673,6.71,1111122 
DISL,ioos:station:DISL:CATA:1,2009-06-02T15:30:00Z,30.3085,-88.1395,2.659,5.02,1111122 
DISL,ioos:station:DISL:CATA:1,2009-06-02T16:00:00Z,30.3085,-88.1395,2.628,5.02,1111122 
DISL,ioos:station:DISL:CATA:1,2009-06-02T16:30:00Z,30.3085,-88.1395,2.611,5.25,1111122 
DISL,ioos:station:DISL:CATA:1,2009-06-02T17:00:00Z,30.3085,-88.1395,2.604,4.85,1111122 
DISL,ioos:station:DISL:CATA:1,2009-06-02T17:30:00Z,30.3085,-88.1395,2.578,4.49,1111122 
DISL,ioos:station:DISL:CATA:1,2009-06-02T18:00:00Z,30.3085,-88.1395,2.546,4.27,1111122 
DISL,ioos:station:DISL:CATA:1,2009-06-02T18:30:00Z,30.3085,-88.1395,2.522,4.13,1111122 
DISL,ioos:station:DISL:CATA:1,2009-06-02T19:00:00Z,30.3085,-88.1395,2.501,4.08,1111122 
DISL,ioos:station:DISL:CATA:1,2009-06-02T19:30:00Z,30.3085,-88.1395,2.478,4.03,1111122 
DISL,ioos:station:DISL:CATA:1,2009-06-02T20:00:00Z,30.3085,-88.1395,2.46,3.89,1111122 
DISL,ioos:station:DISL:CATA:1,2009-06-02T20:30:00Z,30.3085,-88.1395,2.458,3.8,1111122 
DISL,ioos:station:DISL:CATA:1,2009-06-02T21:00:00Z,30.3085,-88.1395,2.446,3.75,1111122 
DISL,ioos:station:DISL:CATA:1,2009-06-02T21:30:00Z,30.3085,-88.1395,2.437,3.66,1111122 
DISL,ioos:station:DISL:CATA:1,2009-06-02T22:00:00Z,30.3085,-88.1395,2.423,3.62,1111122 
DISL,ioos:station:DISL:CATA:1,2009-06-02T22:30:00Z,30.3085,-88.1395,2.426,3.58,1111122 
DISL,ioos:station:DISL:CATA:1,2009-06-02T23:00:00Z,30.3085,-88.1395,2.435,3.57,1111122 
DISL,ioos:station:DISL:CATA:1,2009-06-02T23:30:00Z,30.3085,-88.1395,2.448,3.57,1111122 
DISL,ioos:station:DISL:CATA:1,2009-06-03T00:00:00Z,30.3085,-88.1395,2.464,3.61,1111122 
DISL,ioos:station:DISL:CATA:1,2009-06-03T00:30:00Z,30.3085,-88.1395,2.456,3.63,1111122 
DISL,ioos:station:DISL:CATA:1,2009-06-03T01:00:00Z,30.3085,-88.1395,2.458,3.62,1111122 
DISL,ioos:station:DISL:CATA:1,2009-06-03T01:30:00Z,30.3085,-88.1395,2.468,3.58,1111122 
DISL,ioos:station:DISL:CATA:1,2009-06-03T02:00:00Z,30.3085,-88.1395,2.487,3.58,1111122 
DISL,ioos:station:DISL:CATA:1,2009-06-03T02:30:00Z,30.3085,-88.1395,2.495,3.59,1111122 
DISL,ioos:station:DISL:CATA:1,2009-06-03T03:00:00Z,30.3085,-88.1395,2.496,3.63,1111122 
DISL,ioos:station:DISL:CATA:1,2009-06-03T03:30:00Z,30.3085,-88.1395,2.503,3.65,1111122 
DISL,ioos:station:DISL:CATA:1,2009-06-03T04:00:00Z,30.3085,-88.1395,2.53,3.67,1111122 
DISL,ioos:station:DISL:CATA:1,2009-06-03T04:30:00Z,30.3085,-88.1395,2.532,3.68,1111122 
DISL,ioos:station:DISL:CATA:1,2009-06-03T05:00:00Z,30.3085,-88.1395,2.564,3.74,1111122 
DISL,ioos:station:DISL:CATA:1,2009-06-03T05:30:00Z,30.3085,-88.1395,2.606,3.77,1111122 
DISL,ioos:station:DISL:CATA:1,2009-06-03T06:00:00Z,30.3085,-88.1395,2.624,3.84,1111122 
DISL,ioos:station:DISL:CATA:1,2009-06-03T06:30:00Z,30.3085,-88.1395,2.635,4.11,1111122 
DISL,ioos:station:DISL:CATA:1,2009-06-03T07:00:00Z,30.3085,-88.1395,2.649,4.41,1111122 
DISL,ioos:station:DISL:CATA:1,2009-06-03T07:30:00Z,30.3085,-88.1395,2.669,5.24,1111122 
DISL,ioos:station:DISL:CATA:1,2009-06-03T08:00:00Z,30.3085,-88.1395,2.672,5.19,1111122 
DISL,ioos:station:DISL:CATA:1,2009-06-03T08:30:00Z,30.3085,-88.1395,2.665,5.54,1111122 
DISL,ioos:station:DISL:CATA:1,2009-06-03T09:00:00Z,30.3085,-88.1395,2.708,5.9,1111122 
DISL,ioos:station:DISL:CATA:1,2009-06-03T09:30:00Z,30.3085,-88.1395,2.741,5.98,1111122 
DISL,ioos:station:DISL:CATA:1,2009-06-03T10:00:00Z,30.3085,-88.1395,2.741,6.01,1111122 
DISL,ioos:station:DISL:CATA:1,2009-06-03T10:30:00Z,30.3085,-88.1395,2.758,5.95,1111122 
DISL,ioos:station:DISL:CATA:1,2009-06-03T11:00:00Z,30.3085,-88.1395,2.773,5.96,1111122 
DISL,ioos:station:DISL:CATA:1,2009-06-03T11:30:00Z,30.3085,-88.1395,2.81,5.94,1111122 
DISL,ioos:station:DISL:CATA:1,2009-06-03T12:00:00Z,30.3085,-88.1395,2.791,5.95,1111122 
DISL,ioos:station:DISL:CATA:1,2009-06-03T12:30:00Z,30.3085,-88.1395,2.718,5.96,1111122 
DISL,ioos:station:DISL:CATA:1,2009-06-03T13:00:00Z,30.3085,-88.1395,2.76,5.91,1111122 
DISL,ioos:station:DISL:CATA:1,2009-06-03T13:30:00Z,30.3085,-88.1395,2.743,6.48,1111122 
DISL,ioos:station:DISL:CATA:1,2009-06-03T14:00:00Z,30.3085,-88.1395,2.752,8.4,1111122 
DISL,ioos:station:DISL:CATA:1,2009-06-03T14:30:00Z,30.3085,-88.1395,2.743,9.07,1111122 
DISL,ioos:station:DISL:CATA:1,2009-06-03T15:00:00Z,30.3085,-88.1395,2.725,5.36,1111122 
DISL,ioos:station:DISL:CATA:1,2009-06-03T15:30:00Z,30.3085,-88.1395,2.711,5.18,1111122 
DISL,ioos:station:DISL:CATA:1,2009-06-03T16:00:00Z,30.3085,-88.1395,2.661,5.35,1111122 
DISL,ioos:station:DISL:CATA:1,2009-06-03T16:30:00Z,30.3085,-88.1395,2.64,4.82,1111122 
DISL,ioos:station:DISL:CATA:1,2009-06-03T17:00:00Z,30.3085,-88.1395,2.622,5.45,1111122 
DISL,ioos:station:DISL:CATA:1,2009-06-03T17:30:00Z,30.3085,-88.1395,2.606,5.26,1111122 
DISL,ioos:station:DISL:CATA:1,2009-06-03T18:00:00Z,30.3085,-88.1395,2.558,5.18,1111122 
DISL,ioos:station:DISL:CATA:1,2009-06-03T18:30:00Z,30.3085,-88.1395,2.501,4.96,1111122 
DISL,ioos:station:DISL:CATA:1,2009-06-03T19:00:00Z,30.3085,-88.1395,2.478,4.96,1111122 
DISL,ioos:station:DISL:CATA:1,2009-06-03T19:30:00Z,30.3085,-88.1395,2.451,4.92,1111122 
DISL,ioos:station:DISL:CATA:1,2009-06-03T20:00:00Z,30.3085,-88.1395,2.44,4.8,1111122 
DISL,ioos:station:DISL:CATA:1,2009-06-03T20:30:00Z,30.3085,-88.1395,2.416,4.77,1111122 
DISL,ioos:station:DISL:CATA:1,2009-06-03T21:00:00Z,30.3085,-88.1395,2.411,4.71,1111122 
DISL,ioos:station:DISL:CATA:1,2009-06-03T21:30:00Z,30.3085,-88.1395,2.402,4.65,1111122 
DISL,ioos:station:DISL:CATA:1,2009-06-03T22:00:00Z,30.3085,-88.1395,2.39,4.55,1111122 
DISL,ioos:station:DISL:CATA:1,2009-06-03T22:30:00Z,30.3085,-88.1395,2.374,4.52,1111122 
DISL,ioos:station:DISL:CATA:1,2009-06-03T23:00:00Z,30.3085,-88.1395,2.384,4.47,1111122 
DISL,ioos:station:DISL:CATA:1,2009-06-03T23:30:00Z,30.3085,-88.1395,2.393,4.44,1111122 
DISL,ioos:station:DISL:CATA:1,2009-06-04T00:00:00Z,30.3085,-88.1395,2.378,4.41,1111122 
DISL,ioos:station:DISL:CATA:1,2009-06-04T00:30:00Z,30.3085,-88.1395,2.389,4.36,1111122 
DISL,ioos:station:DISL:CATA:1,2009-06-04T01:00:00Z,30.3085,-88.1395,2.404,4.28,1111122 
DISL,ioos:station:DISL:CATA:1,2009-06-04T01:30:00Z,30.3085,-88.1395,2.445,4.26,1111122 
DISL,ioos:station:DISL:CATA:1,2009-06-04T02:00:00Z,30.3085,-88.1395,2.465,4.29,1111122 
DISL,ioos:station:DISL:CATA:1,2009-06-04T02:30:00Z,30.3085,-88.1395,2.472,4.31,1111122 
DISL,ioos:station:DISL:CATA:1,2009-06-04T03:00:00Z,30.3085,-88.1395,2.489,4.33,1111122 
DISL,ioos:station:DISL:CATA:1,2009-06-04T03:30:00Z,30.3085,-88.1395,2.531,4.32,1111122 
DISL,ioos:station:DISL:CATA:1,2009-06-04T04:00:00Z,30.3085,-88.1395,2.547,4.33,1111122 
DISL,ioos:station:DISL:CATA:1,2009-06-04T04:30:00Z,30.3085,-88.1395,2.555,4.33,1111122 
DISL,ioos:station:DISL:CATA:1,2009-06-04T05:00:00Z,30.3085,-88.1395,2.608,4.31,1111122 
DISL,ioos:station:DISL:CATA:1,2009-06-04T05:30:00Z,30.3085,-88.1395,2.618,4.32,1111122 
DISL,ioos:station:DISL:CATA:1,2009-06-04T06:00:00Z,30.3085,-88.1395,2.631,4.29,1111122 
DISL,ioos:station:DISL:CATA:1,2009-06-04T06:30:00Z,30.3085,-88.1395,2.621,4.35,1111122 
DISL,ioos:station:DISL:CATA:1,2009-06-04T07:00:00Z,30.3085,-88.1395,2.676,4.4,1111122 
DISL,ioos:station:DISL:CATA:1,2009-06-04T07:30:00Z,30.3085,-88.1395,2.668,4.53,1111122 
DISL,ioos:station:DISL:CATA:1,2009-06-04T08:00:00Z,30.3085,-88.1395,2.705,4.4,1111122 
DISL,ioos:station:DISL:CATA:1,2009-06-04T08:30:00Z,30.3085,-88.1395,2.752,4.43,1111122 
DISL,ioos:station:DISL:CATA:1,2009-06-04T09:00:00Z,30.3085,-88.1395,2.766,4.46,1111122 
DISL,ioos:station:DISL:CATA:1,2009-06-04T09:30:00Z,30.3085,-88.1395,2.782,4.49,1111122 
DISL,ioos:station:DISL:CATA:1,2009-06-04T10:00:00Z,30.3085,-88.1395,2.789,4.55,1111122 
DISL,ioos:station:DISL:CATA:1,2009-06-04T10:30:00Z,30.3085,-88.1395,2.814,4.58,1111122 
DISL,ioos:station:DISL:CATA:1,2009-06-04T11:00:00Z,30.3085,-88.1395,2.845,4.64,1111122 
DISL,ioos:station:DISL:CATA:1,2009-06-04T11:30:00Z,30.3085,-88.1395,2.861,4.65,1111122 
DISL,ioos:station:DISL:CATA:1,2009-06-04T12:00:00Z,30.3085,-88.1395,2.869,4.69,1111122 
DISL,ioos:station:DISL:CATA:1,2009-06-04T12:30:00Z,30.3085,-88.1395,2.85,8.12,1111122 
DISL,ioos:station:DISL:CATA:1,2009-06-04T13:00:00Z,30.3085,-88.1395,2.845,11.73,1111122 
DISL,ioos:station:DISL:CATA:1,2009-06-04T13:30:00Z,30.3085,-88.1395,2.833,13.28,1111122 
DISL,ioos:station:DISL:CATA:1,2009-06-04T14:00:00Z,30.3085,-88.1395,2.831,14.32,1111122 
DISL,ioos:station:DISL:CATA:1,2009-06-04T14:30:00Z,30.3085,-88.1395,2.822,14.82,1111122 
DISL,ioos:station:DISL:CATA:1,2009-06-04T15:00:00Z,30.3085,-88.1395,2.802,15.06,1111122 
DISL,ioos:station:DISL:CATA:1,2009-06-04T15:30:00Z,30.3085,-88.1395,2.779,15.38,1111122 
DISL,ioos:station:DISL:CATA:1,2009-06-04T16:00:00Z,30.3085,-88.1395,2.756,15.35,1111122 
DISL,ioos:station:DISL:CATA:1,2009-06-04T16:30:00Z,30.3085,-88.1395,2.72,15.28,1111122 
DISL,ioos:station:DISL:CATA:1,2009-06-04T17:00:00Z,30.3085,-88.1395,2.718,14.28,1111122 
DISL,ioos:station:DISL:CATA:1,2009-06-04T17:30:00Z,30.3085,-88.1395,2.693,13.69,1111122 
DISL,ioos:station:DISL:CATA:1,2009-06-04T18:00:00Z,30.3085,-88.1395,2.673,12.76,1111122 
DISL,ioos:station:DISL:CATA:1,2009-06-04T18:30:00Z,30.3085,-88.1395,2.614,12.67,1111122 
DISL,ioos:station:DISL:CATA:1,2009-06-04T19:00:00Z,30.3085,-88.1395,2.573,12.71,1111122 
DISL,ioos:station:DISL:CATA:1,2009-06-04T19:30:00Z,30.3085,-88.1395,2.531,12.5,1111122 
DISL,ioos:station:DISL:CATA:1,2009-06-04T20:00:00Z,30.3085,-88.1395,2.488,11.63,1111122 
DISL,ioos:station:DISL:CATA:1,2009-06-04T20:30:00Z,30.3085,-88.1395,2.451,7.12,1111122 
DISL,ioos:station:DISL:CATA:1,2009-06-04T21:00:00Z,30.3085,-88.1395,2.444,5.91,1111122 
DISL,ioos:station:DISL:CATA:1,2009-06-04T21:30:00Z,30.3085,-88.1395,2.434,5.91,1111122 
DISL,ioos:station:DISL:CATA:1,2009-06-04T22:00:00Z,30.3085,-88.1395,2.426,5.89,1111122 
DISL,ioos:station:DISL:CATA:1,2009-06-04T22:30:00Z,30.3085,-88.1395,2.398,5.51,1111122 
DISL,ioos:station:DISL:CATA:1,2009-06-04T23:00:00Z,30.3085,-88.1395,2.381,6.42,1111122 
DISL,ioos:station:DISL:CATA:1,2009-06-04T23:30:00Z,30.3085,-88.1395,2.363,6.3,1111122 
DISL,ioos:station:DISL:CATA:1,2009-06-05T00:00:00Z,30.3085,-88.1395,2.352,6.61,1111122 
DISL,ioos:station:DISL:CATA:1,2009-06-05T00:30:00Z,30.3085,-88.1395,2.342,6.69,1111122 
DISL,ioos:station:DISL:CATA:1,2009-06-05T01:00:00Z,30.3085,-88.1395,2.334,6.51,1111122 
DISL,ioos:station:DISL:CATA:1,2009-06-05T01:30:00Z,30.3085,-88.1395,2.347,6.26,1111122 
DISL,ioos:station:DISL:CATA:1,2009-06-05T02:00:00Z,30.3085,-88.1395,2.367,6.15,1111122 
DISL,ioos:station:DISL:CATA:1,2009-06-05T02:30:00Z,30.3085,-88.1395,2.397,6.21,1111122 
DISL,ioos:station:DISL:CATA:1,2009-06-05T03:00:00Z,30.3085,-88.1395,2.431,6.32,1111122 
DISL,ioos:station:DISL:CATA:1,2009-06-05T03:30:00Z,30.3085,-88.1395,2.431,6.52,1111122 
DISL,ioos:station:DISL:CATA:1,2009-06-05T04:00:00Z,30.3085,-88.1395,2.382,6.56,1111122 
DISL,ioos:station:DISL:CATA:1,2009-06-05T04:30:00Z,30.3085,-88.1395,2.393,6.78,1111122 
DISL,ioos:station:DISL:CATA:1,2009-06-05T05:00:00Z,30.3085,-88.1395,2.426,7.1,1111122 
DISL,ioos:station:DISL:CATA:1,2009-06-05T05:30:00Z,30.3085,-88.1395,2.477,6.27,1111122 
DISL,ioos:station:DISL:CATA:1,2009-06-05T06:00:00Z,30.3085,-88.1395,2.457,6.25,1111122 
DISL,ioos:station:DISL:CATA:1,2009-06-05T06:30:00Z,30.3085,-88.1395,2.462,5.82,1111122 
DISL,ioos:station:DISL:CATA:1,2009-06-05T07:00:00Z,30.3085,-88.1395,2.491,5.68,1111122 
DISL,ioos:station:DISL:CATA:1,2009-06-05T07:30:00Z,30.3085,-88.1395,2.516,6.11,1111122 
DISL,ioos:station:DISL:CATA:1,2009-06-05T08:00:00Z,30.3085,-88.1395,2.573,6.24,1111122 
DISL,ioos:station:DISL:CATA:1,2009-06-05T08:30:00Z,30.3085,-88.1395,2.587,7.08,1111122 
DISL,ioos:station:DISL:CATA:1,2009-06-05T09:00:00Z,30.3085,-88.1395,2.599,7.59,1111122 
DISL,ioos:station:DISL:CATA:1,2009-06-05T09:30:00Z,30.3085,-88.1395,2.64,8.27,1111122 
DISL,ioos:station:DISL:CATA:1,2009-06-05T10:00:00Z,30.3085,-88.1395,2.665,9.31,1111122 
DISL,ioos:station:DISL:CATA:1,2009-06-05T10:30:00Z,30.3085,-88.1395,2.672,9.92,1111122 
DISL,ioos:station:DISL:CATA:1,2009-06-05T11:00:00Z,30.3085,-88.1395,2.709,10.35,1111122 
DISL,ioos:station:DISL:CATA:1,2009-06-05T11:30:00Z,30.3085,-88.1395,2.741,10.88,1111122 
DISL,ioos:station:DISL:CATA:1,2009-06-05T12:00:00Z,30.3085,-88.1395,2.751,11.32,1111122 
DISL,ioos:station:DISL:CATA:1,2009-06-05T12:30:00Z,30.3085,-88.1395,2.775,11.41,1111122 
DISL,ioos:station:DISL:CATA:1,2009-06-05T13:00:00Z,30.3085,-88.1395,2.783,11.58,1111122 
DISL,ioos:station:DISL:CATA:1,2009-06-05T13:30:00Z,30.3085,-88.1395,2.776,11.81,1111122 
DISL,ioos:station:DISL:CATA:1,2009-06-05T14:00:00Z,30.3085,-88.1395,2.782,11.89,1111122 
DISL,ioos:station:DISL:CATA:1,2009-06-05T14:30:00Z,30.3085,-88.1395,2.776,12.2,1111122 
DISL,ioos:station:DISL:CATA:1,2009-06-05T15:00:00Z,30.3085,-88.1395,2.781,12.38,1111122 
DISL,ioos:station:DISL:CATA:1,2009-06-05T15:30:00Z,30.3085,-88.1395,2.778,12.53,1111122 
DISL,ioos:station:DISL:CATA:1,2009-06-05T16:00:00Z,30.3085,-88.1395,2.748,12.54,1111122 
DISL,ioos:station:DISL:CATA:1,2009-06-05T16:30:00Z,30.3085,-88.1395,2.705,12.64,1111122 
DISL,ioos:station:DISL:CATA:1,2009-06-05T17:00:00Z,30.3085,-88.1395,2.696,13.04,1111122 
DISL,ioos:station:DISL:CATA:1,2009-06-05T17:30:00Z,30.3085,-88.1395,2.682,13.08,1111122 
DISL,ioos:station:DISL:CATA:1,2009-06-05T18:00:00Z,30.3085,-88.1395,2.653,12.78,1111122 
DISL,ioos:station:DISL:CATA:1,2009-06-05T18:30:00Z,30.3085,-88.1395,2.616,11.73,1111122 
DISL,ioos:station:DISL:CATA:1,2009-06-05T19:00:00Z,30.3085,-88.1395,2.587,10.15,1111122 
DISL,ioos:station:DISL:CATA:1,2009-06-05T19:30:00Z,30.3085,-88.1395,2.532,8.85,1111122 
DISL,ioos:station:DISL:CATA:1,2009-06-05T20:00:00Z,30.3085,-88.1395,2.482,9.49,1111122 
DISL,ioos:station:DISL:CATA:1,2009-06-05T20:30:00Z,30.3085,-88.1395,2.438,9.76,1111122 
DISL,ioos:station:DISL:CATA:1,2009-06-05T21:00:00Z,30.3085,-88.1395,2.389,9.47,1111122 
DISL,ioos:station:DISL:CATA:1,2009-06-05T21:30:00Z,30.3085,-88.1395,2.363,9.31,1111122 
DISL,ioos:station:DISL:CATA:1,2009-06-05T22:00:00Z,30.3085,-88.1395,2.324,8.62,1111122 
DISL,ioos:station:DISL:CATA:1,2009-06-05T22:30:00Z,30.3085,-88.1395,2.297,8.16,1111122 
DISL,ioos:station:DISL:CATA:1,2009-06-05T23:00:00Z,30.3085,-88.1395,2.283,7.78,1111122 
DISL,ioos:station:DISL:CATA:1,2009-06-05T23:30:00Z,30.3085,-88.1395,2.265,7.48,1111122 
DISL,ioos:station:DISL:CATA:1,2009-06-06T00:00:00Z,30.3085,-88.1395,2.271,7.42,1111122 
DISL,ioos:station:DISL:CATA:1,2009-06-06T00:30:00Z,30.3085,-88.1395,2.259,7.2,1111122 
DISL,ioos:station:DISL:CATA:1,2009-06-06T01:00:00Z,30.3085,-88.1395,2.251,7.37,1111122 
DISL,ioos:station:DISL:CATA:1,2009-06-06T01:30:00Z,30.3085,-88.1395,2.232,7.2,1111122 
DISL,ioos:station:DISL:CATA:1,2009-06-06T02:00:00Z,30.3085,-88.1395,2.203,7.04,1111122 
DISL,ioos:station:DISL:CATA:1,2009-06-06T02:30:00Z,30.3085,-88.1395,2.197,6.88,1111122 
DISL,ioos:station:DISL:CATA:1,2009-06-06T03:00:00Z,30.3085,-88.1395,2.223,6.67,1111122 
DISL,ioos:station:DISL:CATA:1,2009-06-06T03:30:00Z,30.3085,-88.1395,2.246,6.56,1111122 
DISL,ioos:station:DISL:CATA:1,2009-06-06T04:00:00Z,30.3085,-88.1395,2.273,6.54,1111122 
DISL,ioos:station:DISL:CATA:1,2009-06-06T04:30:00Z,30.3085,-88.1395,2.299,6.96,1111122 
DISL,ioos:station:DISL:CATA:1,2009-06-06T05:00:00Z,30.3085,-88.1395,2.327,7.0,1111122 
DISL,ioos:station:DISL:CATA:1,2009-06-06T05:30:00Z,30.3085,-88.1395,2.347,6.83,1111122 
DISL,ioos:station:DISL:CATA:1,2009-06-06T06:00:00Z,30.3085,-88.1395,2.378,6.75,1111122 
DISL,ioos:station:DISL:CATA:1,2009-06-06T06:30:00Z,30.3085,-88.1395,2.413,7.14,1111122 
DISL,ioos:station:DISL:CATA:1,2009-06-06T07:00:00Z,30.3085,-88.1395,2.439,7.39,1111122 
DISL,ioos:station:DISL:CATA:1,2009-06-06T07:30:00Z,30.3085,-88.1395,2.46,7.6,1111122 
DISL,ioos:station:DISL:CATA:1,2009-06-06T08:00:00Z,30.3085,-88.1395,2.488,8.0,1111122 
DISL,ioos:station:DISL:CATA:1,2009-06-06T08:30:00Z,30.3085,-88.1395,2.525,8.52,1111122 
DISL,ioos:station:DISL:CATA:1,2009-06-06T09:00:00Z,30.3085,-88.1395,2.559,9.04,1111122 
DISL,ioos:station:DISL:CATA:1,2009-06-06T09:30:00Z,30.3085,-88.1395,2.589,9.33,1111122 
DISL,ioos:station:DISL:CATA:1,2009-06-06T10:00:00Z,30.3085,-88.1395,2.623,10.06,1111122 
DISL,ioos:station:DISL:CATA:1,2009-06-06T10:30:00Z,30.3085,-88.1395,2.674,10.97,1111122 
DISL,ioos:station:DISL:CATA:1,2009-06-06T11:00:00Z,30.3085,-88.1395,2.716,11.55,1111122 
DISL,ioos:station:DISL:CATA:1,2009-06-06T11:30:00Z,30.3085,-88.1395,2.738,11.85,1111122 
DISL,ioos:station:DISL:CATA:1,2009-06-06T12:00:00Z,30.3085,-88.1395,2.77,12.04,1111122 
DISL,ioos:station:DISL:CATA:1,2009-06-06T12:30:00Z,30.3085,-88.1395,2.799,12.32,1111122 
DISL,ioos:station:DISL:CATA:1,2009-06-06T13:00:00Z,30.3085,-88.1395,2.81,12.23,1111122 
DISL,ioos:station:DISL:CATA:1,2009-06-06T13:30:00Z,30.3085,-88.1395,2.818,12.45,1111122 
DISL,ioos:station:DISL:CATA:1,2009-06-06T14:00:00Z,30.3085,-88.1395,2.843,12.51,1111122 
DISL,ioos:station:DISL:CATA:1,2009-06-06T14:30:00Z,30.3085,-88.1395,2.841,14.11,1111122 
DISL,ioos:station:DISL:CATA:1,2009-06-06T15:00:00Z,30.3085,-88.1395,2.833,14.95,1111122 